Regional Weather Roundup
Issued by NWS

Home | Current Version | Previous Version | Text Only | Print | Product List | Glossary Off
Versions: 1 2 3 4 5 6 7 8 9 10 11 12 13 14 15 16 17 18 19 20 21 22 23 24 25 26 27 28 29 30 31 32 33 34 35 36 37 38 39 40 41 42 43 44 45 46 47 48 49 50

000
ASUS43 KLOT 310509
RWRIL

ILLINOIS REGIONAL WEATHER ROUNDUP
NATIONAL WEATHER SERVICE CHICAGO/ROMEOVILLE IL
1200 AM CDT SUN JUL 31 2016

NOTE: "FAIR" INDICATES FEW OR NO CLOUDS BELOW 12,000 FEET WITH NO
SIGNIFICANT WEATHER AND/OR OBSTRUCTIONS TO VISIBILITY.

* THESE STATIONS ARE NOT UNDER NWS QUALITY CONTROL. THEY ALSO MAY NOT
  REPORT WEATHER SUCH AS PRECIPITATION OR FOG.

ILZ001-002-007-009-015-016-024-310600-
NORTHWEST ILLINOIS

CITY           SKY/WX    TMP DP  RH WIND       PRES   REMARKS
MOLINE         CLEAR     71  66  84 E8        30.00S
STERLING*      CLEAR     65  64  97 E5        30.02S
SAVANNA*       CLEAR     66  63  88 E5        30.02R
$$

ILZ003-004-008-010-011-017-018-310600-
NORTH CENTRAL ILLINOIS

CITY           SKY/WX    TMP DP  RH WIND       PRES   REMARKS
ROCKFORD       CLEAR     67  60  78 NE3       30.04S
FREEPORT*      CLEAR     62  60  93 CALM      30.05S
ROCHELLE*      CLEAR     63  62  97 CALM      30.03S
DE KALB*       CLEAR     64  63  96 CALM      30.04S
$$

ILZ005-006-012>014-019>023-310600-
NORTHEAST ILLINOIS

CITY           SKY/WX    TMP DP  RH WIND       PRES   REMARKS
CHICAGO-OHARE  MOCLDY    69  64  84 CALM      30.00F
CHICAGO-MIDWAY MOCLDY    73  65  75 NE10      30.00S
AURORA         CLEAR     66  63  90 CALM      30.02S
LANSING*       CLEAR     70  64  83 NE5       30.00S
JOLIET*        CLEAR     66  64  93 CALM      30.01S
WAUKEGAN       PTCLDY    66  63  90 N3        30.00F
DUPAGE AIRPORT CLEAR     66  62  87 CALM      30.01S
KANKAKEE*      PTCLDY    67  65  93 CALM      30.01S
WHEELING       CLOUDY    69  64  84 N3        30.01F
MORRIS*        CLEAR     66  64  93 CALM      30.00F
ROMEOVILLE*    PTCLDY    66  63  87 N3        30.01S
NORTHERLY ISL    N/A     72  65  78 NE10        N/A
$$

LMZ740>746-310600-
SOUTHERN LAKE MICHIGAN

STATION/POSITION SKY/WX   TEMP    WIND        PRES    VSBY  WAVE
                          AIR SEA DIR/SP/G                  HT/PER
                          (F)     (DEG/KT/KT) (MB)    (MI)  (FT/S)
SOUTHERN BUOY              71 73   80/ 10/ 10 1015.6R         2/ 5
WILMETTE HARBOR            72 71  100/  6/ 10   N/A           2/ 4
HARRISON CRIB              73      40/ 11/ 13   N/A
BURNHAM HARBOR             72      60/  8/ 10   N/A
CALUMET HARBOR             72      20/  7/ 11 1015.4R
BURNS HARBOR               67      80/  7/ 13 1016.6R
MICHIGAN CITY              66      50/  5/  5   N/A
MICHIGAN CITY 6N           67 68   60/  4/  6   N/A           2/ 4
ST. JOSEPH                 65 66   40/  2/  4 1015.9R         1/ 4
$$

ILZ025>027-034>036-040-047-049-050-058-095>099-310600-
WEST-CENTRAL ILLINOIS

CITY           SKY/WX    TMP DP  RH WIND       PRES   REMARKS
QUINCY         CLEAR     69  68  96 CALM      30.00R
GALESBURG*     CLEAR     69  67  93 CALM      30.00R
MACOMB*        CLEAR     65  64  97 CALM      30.02R
JACKSONVILLE*  CLEAR     67  65  94 CALM      29.99S
PITTSFIELD*    CLEAR     68  67  98 CALM      30.02R
$$

ILZ028>032-037-038-041>044-048-051>054-059>061-310600-
CENTRAL ILLINOIS

CITY           SKY/WX    TMP DP  RH WIND       PRES   REMARKS
BLOOMINGTON    MOCLDY    68  66  93 E9        30.02S
DECATUR        CLEAR     71  67  87 CALM      29.99R
PEORIA         CLEAR     71  69  93 CALM      30.00R
LACON*         CLOUDY    69  67  93 E6        30.00S
LINCOLN*       PTCLDY    71  70  98 NE3       29.99S
SPRINGFIELD    CLEAR     69  67  93 CALM      29.99S
TAYLORVILLE    CLEAR     67  66  98 MISG      30.00R
$$

ILZ033-039-045-046-055>057-062-063-310600-
EAST-CENTRAL ILLINOIS

CITY           SKY/WX    TMP DP  RH WIND       PRES   REMARKS
CHAMPAIGN      CLEAR     71  68  90 NE7       29.99S
MATTOON        CLEAR     71  66  84 SW3       29.99R
PARIS*         CLEAR     66  66 100 CALM      29.99S
$$

ILZ079-100>102-310600-
SOUTHWEST ILLINOIS

CITY           SKY/WX    TMP DP  RH WIND       PRES   REMARKS
ALTON          MOCLDY    68  67  94 CALM      30.01R
BELLEVILLE     CLEAR     71  71 100 CALM      29.99R
CAHOKIA*       MOCLDY    72  68  87 CALM      30.00R
SPARTA*        PTCLDY    72  69  92 CALM      30.01S
$$

ILZ064>066-069>071-074>076-080>082-084>086-088>090-092>094-310600-
SOUTH-CENTRAL ILLINOIS

CITY           SKY/WX    TMP DP  RH WIND       PRES   REMARKS
CARBONDALE     PTCLDY    73  71  93 CALM      29.99S
CAIRO*         PTCLDY    72  72 100 CALM      29.99F
EFFINGHAM*     CLEAR     68  68 100 CALM      30.01R
MARION         PTCLDY    75  73  94 CALM      30.00F
MT. VERNON     CLEAR     70  64  83 CALM      30.01R
CENTRALIA*     PTCLDY    69  69 100 CALM      30.00R
SALEM*         CLEAR     70  67  92 CALM      30.00S
METROPOLIS*    CLEAR     73  72  97 CALM      29.99F
$$

ILZ067-068-072-073-078-083-087-091-310600-
SOUTHEAST ILLINOIS

CITY           SKY/WX    TMP DP  RH WIND       PRES   REMARKS
LAWRENCEVILLE  CLEAR     70  69  97 S3        29.99R
FLORA*         PTCLDY    70  69  96 CALM      30.00R
FAIRFIELD*     PTCLDY    70  70  98 CALM      29.99S
HARRISBURG*    PTCLDY    73  73 100 CALM      29.99F FOG
ROBINSON*      CLEAR     65  65 100 CALM      30.00S
CARMI*         PTCLDY    71  71 100 CALM      29.99S FOG
$$

ABBREVIATIONS USED IN REMARKS
   TC - TEMPERATURE IN CELSIUS
  WCI - WIND CHILL INDEX
   HX - HEAT INDEX
  VSB - VISIBILITY
$$




USA.gov is the U.S. government's official web portal to all federal, state and local government web resources and services.